[[{"header":{"parameterUnit":"m.s-1","parameterCategory":1,"la1":30.2991,"la2":30.254,"lo1":-89.0895,"lo2":-89.0444,"dy":0.0017,"dx":0.0017,"nx":28,"ny":28,"refTime":"2024-12-13T03:00:00:Z","depth":0,"parameterNumber":2,"parameterNumberName":"U-component_of_WINDS"},"data":[0,0,0,0,0,0,0,0,0,0,0,0,0,0,0,0,0,0,0,0,0,0,0,0,0,0,0,0,0,0,0,0,0,0,0,0,0,0,0,0,0,0,0,0,0,0,0,0,0,0,0,0,0,0,0,0,0,0,-6.0371,-6.037,0,-6.0318,-6.0317,-6.0317,-6.0125,-6.012,-6.0116,-6.0112,-6.0061,-6.0064,-6.0066,0,0,0,0,0,0,0,0,0,0,0,0,0,-6.031,-6.0312,-6.0371,-6.037,-6.037,-6.0318,-6.0317,-6.0317,-6.0125,-6.012,-6.0115,-6.011,-6.006,-6.0063,-6.0067,0,0,0,0,0,0,0,0,0,0,0,0,0,-6.0305,-6.0313,-6.0371,-6.0268,-6.0258,-6.0318,-6.0317,-6.0316,-6.0126,-6.012,-6.0113,-6.0107,-6.0059,-6.0063,-6.0067,-6.0223,0,0,-6.0079,-6.0081,0,0,0,0,0,0,0,0,-6.0305,-6.0307,-6.0284,-6.0275,-6.0264,-6.0221,-6.0277,-6.0285,-6.0128,-6.0177,-6.0112,-6.0104,-6.012,-6.0118,-6.0123,-6.0221,-6.0219,-6.008,-6.0082,-6.0084,-6.0085,0,0,0,0,0,0,0,-6.0306,-6.0309,-6.035,-6.0284,-6.0272,-6.0225,-6.0217,-6.0278,-6.0186,-6.0172,-6.0158,-6.0154,-6.0113,-6.012,-6.012,-6.0218,-6.008,-6.0083,-6.0086,-6.0087,-6.0442,-6.0448,0,0,0,0,0,0,-6.0321,-6.031,-6.0352,-6.0348,-6.0269,-6.0232,-6.0223,-6.0242,-6.0184,-6.0169,-6.016,-6.0145,-6.0116,-6.0116,-6.0118,-6.0296,-6.0084,-6.0088,-6.009,-6.0435,-6.0443,-6.0451,0,0,0,0,0,0,-6.032,-6.0326,-6.0354,-6.0325,-6.0325,-6.024,-6.0263,-6.0244,-6.025,-6.0175,-6.0158,-6.0183,-6.0111,-6.0112,-6.0198,-6.0292,-6.009,-6.0093,-6.0427,-6.0437,-6.0447,-6.0656,0,0,0,0,0,0,-6.0319,-6.0327,-6.0385,-6.0328,-6.0328,-6.0435,-6.0268,-6.0248,-6.0257,-6.0238,-6.0192,-6.0179,-6.0106,-6.0193,-6.0202,-6.0294,-6.0097,-6.0418,-6.0431,-6.0444,-6.064,-6.0672,-6.07,0,0,0,0,0,-6.0318,-6.0447,-6.0389,-6.0395,-6.0398,-6.044,-6.044,-6.0353,-6.0266,-6.0323,-6.0275,-6.018,-6.0281,-6.0204,-6.0212,-6.0307,-6.0412,-6.0428,-6.0443,-6.0627,-6.0666,-6.0699,0,0,0,0,0,0,-6.0517,-6.0437,-6.0372,-6.0486,-6.0472,-6.0408,-6.0478,-6.0397,-6.0407,-6.0389,-6.0281,-6.0272,-6.0374,-6.0349,-6.0265,-6.0455,-6.033,-6.0349,-6.0468,-6.0504,-6.0533,-6.0537,-6.01,0,0,0,0,0,-6.0575,-6.0615,-6.0543,-6.0651,-6.0647,-6.0565,-6.058,-6.0514,-6.0494,-6.0487,-6.0445,-6.0432,-6.0459,-6.0481,-6.0502,-6.0637,-6.0624,-6.0706,-6.0736,-6.076,-6.0777,-6.0846,-6.0881,-6.0502,-6.0502,-6.0502,0,0,-6.0694,-6.0655,-6.0687,-6.069,-6.0671,-6.0716,-6.056,-6.0615,-6.0647,-6.0496,-6.0574,-6.0544,-6.0521,-6.0632,-6.0678,-6.0614,-6.0879,-6.078,-6.0801,-6.0803,-6.0866,-6.0902,-6.0934,-6.0513,-6.0511,-6.0509,0,0,-6.0932,-6.0908,-6.0994,-6.0978,-6.095,-6.0895,-6.0916,-6.0865,-6.0839,-6.0915,-6.0803,-6.0841,-6.0892,-6.088,-6.0881,-6.1117,-6.103,-6.1128,-6.1282,-6.1351,-6.1381,-6.1407,-6.1491,-6.1522,-6.1145,-6.1146,-6.1146,0,-6.1084,-6.1146,-6.1049,-6.1111,-6.1115,-6.098,-6.1068,-6.1057,-6.1039,-6.1046,-6.0974,-6.1035,-6.1011,-6.1117,-6.1175,-6.118,-6.1201,-6.1132,-6.1384,-6.1409,-6.1432,-6.1511,-6.1543,-6.1157,-6.1156,-6.1155,-6.1154,0,-6.1333,-6.1378,-6.1452,-6.1436,-6.145,-6.1524,-6.144,-6.1466,-6.1399,-6.1352,-6.1432,-6.1398,-6.1411,-6.1431,-6.1367,-6.1529,-6.149,-6.1403,-6.1275,-6.1482,-6.1554,-6.1583,-6.1175,-6.117,-6.1167,-6.1164,0,0,-6.1695,-6.1625,-6.1654,-6.1645,-6.1606,-6.1639,-6.1709,-6.1719,-6.1743,-6.1737,-6.1792,-6.1839,-6.1758,-6.1759,-6.1693,-6.1754,-6.1943,-6.1659,-6.1657,-6.1712,-6.2119,-6.2183,-6.222,-6.1885,-6.1891,-6.1895,-6.212,0,-6.1921,-6.2033,-6.1949,-6.2076,-6.2116,-6.1989,-6.2049,-6.2033,-6.1991,-6.202,-6.1974,-6.2009,-6.19,-6.19,-6.1954,-6.1908,-6.2023,-6.1891,-6.1936,-6.1939,-6.1944,-6.2257,-6.2325,-6.2539,-6.2148,-6.2152,-6.2156,0,-6.2199,-6.2203,-6.2335,-6.2286,-6.23,-6.2356,-6.2359,-6.2389,-6.2368,-6.2333,-6.2336,-6.2253,-6.2319,-6.2195,-6.2284,-6.2196,-6.221,-6.2191,-6.2197,-6.2196,-6.2059,-6.2264,-6.2605,-6.2637,-6.2199,-6.2196,-6.2193,0,-6.2449,-6.2488,-6.257,-6.2567,-6.2514,-6.2556,-6.2536,-6.2507,-6.252,-6.2524,-6.2531,-6.2544,-6.2551,-6.2563,-6.2487,-6.2404,-6.2586,-6.2456,-6.256,-6.2562,-6.2602,-6.2601,-6.295,-6.2615,-6.2614,-6.2613,-6.2613,0,-6.2709,-6.2794,-6.2682,-6.2733,-6.2825,-6.2728,-6.2822,-6.2789,-6.2766,-6.2809,-6.2701,-6.2745,-6.2642,-6.2676,-6.2617,-6.27,-6.2704,-6.2678,-6.2661,-6.2687,-6.269,-6.2693,-6.2676,-6.2622,-6.262,-6.2618,-6.2617,0,-6.3002,-6.293,-6.3012,-6.2955,-6.2943,-6.3013,-6.2964,-6.301,-6.2961,-6.3018,-6.3026,-6.295,-6.2984,-6.291,-6.2933,-6.2894,-6.3011,-6.2972,-6.3018,-6.3006,-6.3113,-6.3104,-6.3475,-6.3519,-6.3158,-6.3162,-6.3164,0,-6.3172,-6.3234,-6.3184,-6.3204,-6.319,-6.3225,-6.3237,-6.3145,-6.3162,-6.3144,-6.3192,-6.3216,-6.323,-6.3291,-6.3239,-6.3257,-6.3216,-6.3345,-6.3218,-6.3242,-6.3216,-6.3213,-6.3219,-6.3371,-6.3375,-6.3379,-6.3382,0,-6.3482,-6.3443,-6.3463,-6.3472,-6.3489,-6.3492,-6.3487,-6.3511,-6.3414,-6.3439,-6.3471,-6.3482,-6.3506,-6.3532,-6.3538,-6.3518,-6.3435,-6.3422,-6.3447,-6.3473,-6.3497,-6.3484,-6.3088,-6.3414,-6.341,-6.3408,-6.3406,-6.3405,-6.3717,-6.3766,-6.3738,-6.3765,-6.3752,-6.375,-6.379,-6.3747,-6.3771,-6.3782,-6.3728,-6.3773,-6.3751,-6.375,-6.374,-6.3774,-6.3716,-6.3753,-6.3761,-6.3771,-6.3788,-6.3493,-6.3776,-6.3775,-6.3774,-6.3773,-6.3772,0,-6.4019,-6.3995,-6.4021,-6.4017,-6.4039,-6.3957,-6.3948,-6.3972,-6.4012,-6.3999,-6.4015,-6.4053,-6.4078,-6.4029,-6.4046,-6.4084,-6.4046,-6.4091,-6.4087,-6.4084,-6.384,-6.3816,-6.4122,-6.4122,-6.4122,-6.4121,-6.4121,-6.4121,-6.4179,-6.4257,-6.4216,-6.4288,-6.4263,-6.4305,-6.4307,-6.4306,-6.4294,-6.4341,-6.436,-6.4328,-6.4301,-6.4315,-6.4335,-6.432,-6.4331,-6.439,-6.4362,-6.4135,-6.4101,-6.4068,-6.4045,-6.4394,-6.4394,-6.4602,-6.4604,-6.4606]},{"header":{"parameterUnit":"m.s-1","parameterCategory":1,"la1":30.2991,"la2":30.254,"lo1":-89.0895,"lo2":-89.0444,"dy":0.0017,"dx":0.0017,"nx":28,"ny":28,"refTime":"2024-12-13T03:00:00:Z","depth":0,"parameterNumber":3,"parameterNumberName":"V-component_of_WINDS"},"data":[0,0,0,0,0,0,0,0,0,0,0,0,0,0,0,0,0,0,0,0,0,0,0,0,0,0,0,0,0,0,0,0,0,0,0,0,0,0,0,0,0,0,0,0,0,0,0,0,0,0,0,0,0,0,0,0,0,0,-0.8714,-0.8714,0,-0.8712,-0.8712,-0.8712,-0.8737,-0.8738,-0.8739,-0.8739,-0.8738,-0.8738,-0.8737,0,0,0,0,0,0,0,0,0,0,0,0,0,-0.8739,-0.8738,-0.8714,-0.8714,-0.8714,-0.8712,-0.8712,-0.8712,-0.8737,-0.8738,-0.8739,-0.874,-0.8738,-0.8738,-0.8737,0,0,0,0,0,0,0,0,0,0,0,0,0,-0.8731,-0.8738,-0.8714,-0.8727,-0.8728,-0.8712,-0.8712,-0.8712,-0.8737,-0.8738,-0.8739,-0.874,-0.8739,-0.8738,-0.8737,-0.871,0,0,-0.8734,-0.8733,0,0,0,0,0,0,0,0,-0.8732,-0.873,-0.8725,-0.8726,-0.8727,-0.8726,-0.872,-0.8711,-0.8737,-0.8733,-0.8739,-0.8741,-0.8733,-0.8733,-0.873,-0.871,-0.871,-0.8734,-0.8733,-0.8732,-0.8732,0,0,0,0,0,0,0,-0.8732,-0.8731,-0.8713,-0.8725,-0.8726,-0.8731,-0.8732,-0.8719,-0.8728,-0.8734,-0.8736,-0.8735,-0.8734,-0.8731,-0.873,-0.871,-0.8734,-0.8733,-0.8732,-0.8732,-0.8662,-0.8661,0,0,0,0,0,0,-0.8731,-0.8731,-0.8714,-0.8713,-0.8732,-0.873,-0.873,-0.8725,-0.8728,-0.8729,-0.8734,-0.8736,-0.8732,-0.8732,-0.873,-0.8696,-0.8732,-0.8732,-0.8731,-0.8663,-0.8662,-0.8661,0,0,0,0,0,0,-0.8732,-0.8729,-0.8714,-0.8723,-0.8721,-0.8729,-0.8723,-0.8725,-0.8722,-0.8728,-0.873,-0.8729,-0.8733,-0.8732,-0.8714,-0.8696,-0.8731,-0.873,-0.8665,-0.8663,-0.8661,-0.8628,0,0,0,0,0,0,-0.8732,-0.8729,-0.872,-0.8722,-0.872,-0.8697,-0.8722,-0.8724,-0.872,-0.8722,-0.8724,-0.8725,-0.8734,-0.8715,-0.8712,-0.8695,-0.8729,-0.8666,-0.8664,-0.8662,-0.8631,-0.8625,-0.8621,0,0,0,0,0,-0.8733,-0.8712,-0.8719,-0.8717,-0.8709,-0.8696,-0.8695,-0.8705,-0.8718,-0.8708,-0.8711,-0.8725,-0.8699,-0.8713,-0.871,-0.8693,-0.8668,-0.8665,-0.8662,-0.8633,-0.8626,-0.8621,0,0,0,0,0,0,-0.8709,-0.8713,-0.8721,-0.87,-0.8697,-0.8701,-0.8688,-0.8698,-0.8692,-0.8695,-0.8708,-0.8708,-0.8687,-0.8688,-0.8704,-0.8664,-0.8685,-0.8682,-0.8664,-0.8658,-0.8653,-0.8652,-0.8729,0,0,0,0,0,-0.8701,-0.869,-0.8694,-0.8675,-0.8674,-0.8681,-0.8676,-0.8683,-0.8681,-0.8681,-0.8683,-0.8681,-0.8671,-0.8665,-0.8657,-0.8631,-0.863,-0.8618,-0.8613,-0.8609,-0.8605,-0.8587,-0.8581,-0.8651,-0.8652,-0.8652,0,0,-0.8684,-0.8685,-0.8678,-0.867,-0.8669,-0.8657,-0.868,-0.8667,-0.8658,-0.8679,-0.866,-0.8662,-0.866,-0.8637,-0.8627,-0.8637,-0.8585,-0.8605,-0.8602,-0.86,-0.8584,-0.8577,-0.8571,-0.865,-0.865,-0.865,0,0,-0.8648,-0.8649,-0.8631,-0.8629,-0.8626,-0.863,-0.8626,-0.8627,-0.8628,-0.861,-0.8624,-0.8613,-0.8598,-0.8594,-0.8591,-0.8549,-0.856,-0.8546,-0.8519,-0.8502,-0.8496,-0.8491,-0.8473,-0.8467,-0.8543,-0.8543,-0.8543,0,-0.8628,-0.8611,-0.8621,-0.8606,-0.86,-0.8617,-0.8598,-0.8596,-0.8591,-0.8586,-0.8598,-0.8576,-0.8577,-0.8551,-0.854,-0.8538,-0.8531,-0.8545,-0.8496,-0.8492,-0.8487,-0.847,-0.8463,-0.8541,-0.8541,-0.8541,-0.8541,0,-0.8585,-0.8572,-0.8558,-0.855,-0.8544,-0.8527,-0.8534,-0.8526,-0.8533,-0.8535,-0.8514,-0.8515,-0.8505,-0.85,-0.8509,-0.8474,-0.848,-0.8494,-0.8515,-0.8478,-0.8462,-0.8456,-0.8538,-0.8539,-0.8539,-0.854,0,0,-0.8534,-0.853,-0.8525,-0.852,-0.8516,-0.8506,-0.8489,-0.8478,-0.847,-0.8465,-0.8449,-0.8434,-0.8445,-0.8441,-0.8449,-0.8434,-0.8396,-0.8449,-0.8449,-0.8437,-0.8355,-0.8342,-0.8335,-0.8404,-0.8403,-0.8402,-0.8354,0,-0.8496,-0.8466,-0.8473,-0.8443,-0.8429,-0.8443,-0.8428,-0.8423,-0.8424,-0.8412,-0.8414,-0.8402,-0.842,-0.8416,-0.8403,-0.8404,-0.8379,-0.8408,-0.8387,-0.8387,-0.8385,-0.8327,-0.8315,-0.8269,-0.8348,-0.8347,-0.8346,0,-0.8449,-0.8439,-0.8407,-0.8402,-0.8396,-0.8382,-0.8371,-0.836,-0.8354,-0.8356,-0.8349,-0.8358,-0.8339,-0.8361,-0.8334,-0.8352,-0.8344,-0.8343,-0.8342,-0.8339,-0.8363,-0.8319,-0.8255,-0.8247,-0.8337,-0.8338,-0.8338,0,-0.8411,-0.8391,-0.8368,-0.8364,-0.8358,-0.8347,-0.8344,-0.8339,-0.8331,-0.8321,-0.8316,-0.8305,-0.8298,-0.8288,-0.8293,-0.8309,-0.8264,-0.8287,-0.8263,-0.8262,-0.8251,-0.8252,-0.8182,-0.825,-0.8251,-0.8251,-0.8251,0,-0.8367,-0.8346,-0.835,-0.8336,-0.8312,-0.8319,-0.8295,-0.8294,-0.8288,-0.8273,-0.8286,-0.8271,-0.8279,-0.8265,-0.8269,-0.8243,-0.8241,-0.8241,-0.8241,-0.8238,-0.8237,-0.8232,-0.8234,-0.8249,-0.8249,-0.825,-0.825,0,-0.8321,-0.8323,-0.8298,-0.8294,-0.8292,-0.8274,-0.827,-0.8255,-0.8256,-0.8236,-0.8232,-0.8234,-0.8217,-0.8221,-0.8204,-0.8206,-0.8172,-0.8179,-0.8174,-0.8174,-0.8149,-0.815,-0.8071,-0.806,-0.8138,-0.8137,-0.8136,0,-0.8291,-0.8275,-0.8267,-0.8257,-0.8253,-0.8237,-0.8227,-0.8234,-0.8223,-0.8213,-0.8199,-0.8183,-0.817,-0.8142,-0.8141,-0.8126,-0.8131,-0.8104,-0.8129,-0.8124,-0.8126,-0.8126,-0.8123,-0.8099,-0.8098,-0.8097,-0.8097,0,-0.8238,-0.8239,-0.8225,-0.821,-0.8198,-0.8187,-0.8177,-0.8168,-0.8173,-0.816,-0.8142,-0.8132,-0.8112,-0.8094,-0.808,-0.8077,-0.8086,-0.8089,-0.8082,-0.8077,-0.8073,-0.8071,-0.8157,-0.809,-0.8091,-0.8091,-0.8092,-0.8092,-0.8197,-0.8181,-0.8172,-0.8155,-0.8148,-0.8137,-0.8122,-0.812,-0.8104,-0.8087,-0.8092,-0.807,-0.8061,-0.8043,-0.8037,-0.8019,-0.8029,-0.802,-0.8017,-0.8014,-0.8009,-0.8077,-0.8017,-0.8018,-0.8018,-0.8018,-0.8018,0,-0.8141,-0.8135,-0.8119,-0.8103,-0.8089,-0.8099,-0.8087,-0.8074,-0.8054,-0.8045,-0.8031,-0.8008,-0.799,-0.7987,-0.7969,-0.7955,-0.7959,-0.795,-0.795,-0.7948,-0.8003,-0.8009,-0.7947,-0.7947,-0.7947,-0.7947,-0.7947,-0.7947,-0.8111,-0.8083,-0.8082,-0.805,-0.8044,-0.8022,-0.8014,-0.8003,-0.7995,-0.7968,-0.7953,-0.795,-0.7942,-0.7924,-0.7907,-0.7906,-0.7898,-0.7887,-0.7887,-0.7938,-0.7945,-0.7952,-0.7958,-0.7886,-0.7885,-0.7834,-0.7833,-0.7833]}]]